Radiation Dose at Monitoring Post of Fukushima Daini Nuclear Power Station
Date,Time,MP-1(microSv/h),MP-2(microSv/h),MP-3(microSv/h),MP-4(microSv/h),MP-5(microSv/h),MP-6(microSv/h),MP-7(microSv/h),Wind Direction,Wind Velocity(m/s),Rain
2017/03/05,00:00,0.392,0.239,0.400,0.371,0.336,0.194,0.163,west-northwest,7.3,No
2017/03/05,00:10,0.392,0.238,0.399,0.370,0.334,0.195,0.164,west-northwest,8.7,No
2017/03/05,00:20,0.391,0.240,0.400,0.369,0.335,0.194,0.164,west-northwest,7.5,No
2017/03/05,00:30,0.392,0.239,0.401,0.371,0.336,0.194,0.164,west-northwest,8.0,No
2017/03/05,00:40,0.392,0.240,0.401,0.370,0.336,0.196,0.163,west-northwest,9.8,No
2017/03/05,00:50,0.391,0.238,0.400,0.370,0.335,0.196,0.164,west-northwest,9.8,No
2017/03/05,01:00,0.391,0.239,0.399,0.370,0.335,0.196,0.164,west-northwest,10.0,No
2017/03/05,01:10,0.391,0.240,0.400,0.372,0.335,0.195,0.164,west-northwest,10.0,No
2017/03/05,01:20,0.392,0.240,0.399,0.370,0.334,0.195,0.165,west-northwest,10.9,No
2017/03/05,01:30,0.390,0.239,0.399,0.369,0.335,0.194,0.164,west-northwest,10.6,No
2017/03/05,01:40,0.390,0.240,0.400,0.370,0.334,0.194,0.164,west-northwest,9.8,No
2017/03/05,01:50,0.393,0.240,0.399,0.371,0.335,0.195,0.163,west-northwest,11.8,No
2017/03/05,02:00,0.393,0.240,0.398,0.370,0.334,0.195,0.163,west-northwest,10.7,No
2017/03/05,02:10,0.392,0.240,0.400,0.370,0.334,0.195,0.164,west-northwest,11.5,No
2017/03/05,02:20,0.392,0.240,0.401,0.370,0.337,0.194,0.164,west-northwest,10.9,No
2017/03/05,02:30,0.392,0.241,0.399,0.370,0.335,0.195,0.164,west-northwest,10.4,No
2017/03/05,02:40,0.392,0.239,0.399,0.370,0.335,0.195,0.164,west-northwest,10.5,No
2017/03/05,02:50,0.391,0.239,0.399,0.371,0.335,0.196,0.163,west-northwest,10.6,No
2017/03/05,03:00,0.393,0.240,0.400,0.370,0.337,0.195,0.164,west-northwest,8.7,No
2017/03/05,03:10,0.393,0.242,0.400,0.371,0.335,0.195,0.163,west-northwest,5.7,No
2017/03/05,03:20,0.392,0.240,0.400,0.371,0.334,0.195,0.163,west-northwest,4.7,No
2017/03/05,03:30,0.393,0.240,0.401,0.371,0.336,0.194,0.165,west-northwest,3.3,No
2017/03/05,03:40,0.392,0.239,0.399,0.370,0.333,0.195,0.164,west-northwest,2.3,No
2017/03/05,03:50,0.391,0.239,0.400,0.371,0.334,0.195,0.163,northwest,2.0,No
2017/03/05,04:00,0.392,0.240,0.400,0.371,0.334,0.196,0.164,north-northwest,1.8,No
2017/03/05,04:10,0.394,0.240,0.400,0.370,0.336,0.195,0.164,north-northeast,2.8,No
2017/03/05,04:20,0.392,0.240,0.399,0.369,0.334,0.195,0.163,northeast,2.0,No
2017/03/05,04:30,0.391,0.240,0.399,0.371,0.334,0.197,0.164,north-northeast,1.7,No
2017/03/05,04:40,0.391,0.240,0.400,0.370,0.335,0.195,0.162,north,2.8,No
2017/03/05,04:50,0.392,0.240,0.401,0.369,0.334,0.195,0.164,north-northwest,1.9,No
2017/03/05,05:00,0.393,0.240,0.399,0.369,0.335,0.196,0.164,north-northeast,1.4,No
2017/03/05,05:10,0.392,0.240,0.397,0.370,0.334,0.196,0.164,northeast,4.7,No
2017/03/05,05:20,0.392,0.239,0.401,0.370,0.336,0.196,0.164,northeast,5.4,No
2017/03/05,05:30,0.391,0.240,0.401,0.371,0.336,0.196,0.164,northeast,4.2,No
2017/03/05,05:40,0.393,0.241,0.401,0.369,0.334,0.195,0.164,northeast,3.2,No
2017/03/05,05:50,0.392,0.239,0.399,0.371,0.334,0.196,0.164,northeast,4.5,No
2017/03/05,06:00,0.393,0.240,0.400,0.370,0.334,0.196,0.164,north-northeast,4.9,No
2017/03/05,06:10,0.393,0.239,0.401,0.370,0.336,0.194,0.164,north-northeast,5.2,No
2017/03/05,06:20,0.392,0.240,0.401,0.369,0.334,0.196,0.164,north-northeast,4.7,No
2017/03/05,06:30,0.392,0.241,0.401,0.370,0.334,0.196,0.164,northeast,4.8,No
2017/03/05,06:40,0.393,0.241,0.400,0.371,0.334,0.195,0.164,north-northeast,4.2,No
2017/03/05,06:50,0.392,0.240,0.401,0.370,0.335,0.196,0.164,north-northeast,4.5,No
2017/03/05,07:00,0.394,0.241,0.401,0.370,0.335,0.196,0.164,northeast,3.1,No
2017/03/05,07:10,0.393,0.241,0.401,0.370,0.335,0.196,0.164,northeast,3.6,No
2017/03/05,07:20,0.392,0.240,0.400,0.371,0.334,0.194,0.163,northeast,1.9,No
2017/03/05,07:30,0.393,0.240,0.402,0.370,0.336,0.196,0.163,east-northeast,1.7,No
2017/03/05,07:40,0.392,0.240,0.402,0.368,0.335,0.196,0.164,northeast,2.7,No
2017/03/05,07:50,0.394,0.241,0.400,0.371,0.335,0.195,0.164,northeast,3.7,No
2017/03/05,08:00,0.392,0.240,0.399,0.370,0.336,0.196,0.164,northeast,4.2,No
2017/03/05,08:10,0.393,0.240,0.400,0.369,0.335,0.196,0.162,northeast,2.9,No
2017/03/05,08:20,0.393,0.240,0.401,0.369,0.334,0.194,0.163,northeast,3.4,No
2017/03/05,08:30,0.391,0.239,0.400,0.369,0.335,0.194,0.162,northeast,3.2,No
2017/03/05,08:40,0.391,0.239,0.400,0.371,0.335,0.195,0.163,northeast,3.9,No
2017/03/05,08:50,0.391,0.240,0.401,0.367,0.334,0.195,0.164,northeast,2.7,No
2017/03/05,09:00,0.392,0.239,0.400,0.369,0.335,0.195,0.162,northeast,2.1,No
2017/03/05,09:10,0.391,0.240,0.400,0.368,0.335,0.193,0.164,east-northeast,3.1,No
2017/03/05,09:20,0.392,0.239,0.400,0.369,0.334,0.195,0.162,east-northeast,2.9,No
2017/03/05,09:30,0.392,0.239,0.401,0.369,0.335,0.194,0.163,east-northeast,2.5,No
2017/03/05,09:40,0.391,0.239,0.400,0.368,0.335,0.194,0.163,east-northeast,2.0,No
2017/03/05,09:50,0.392,0.239,0.399,0.371,0.333,0.194,0.163,east,2.8,No
2017/03/05,10:00,0.389,0.238,0.401,0.367,0.335,0.194,0.164,east,2.8,No
2017/03/05,10:10,0.390,0.240,0.400,0.369,0.335,0.195,0.163,east,3.4,No
2017/03/05,10:20,0.388,0.238,0.398,0.367,0.337,0.194,0.164,east,3.0,No
2017/03/05,10:30,0.392,0.239,0.402,0.369,0.333,0.195,0.163,east-southeast,3.4,No
2017/03/05,10:40,0.390,0.239,0.400,0.369,0.335,0.194,0.164,east,3.1,No
2017/03/05,10:50,0.392,0.239,0.399,0.371,0.335,0.193,0.163,east,3.6,No
2017/03/05,11:00,0.388,0.239,0.400,0.369,0.334,0.195,0.164,east,3.3,No
2017/03/05,11:10,0.393,0.240,0.396,0.371,0.336,0.195,0.163,east-southeast,3.4,No
2017/03/05,11:20,0.390,0.240,0.400,0.368,0.333,0.195,0.164,east-southeast,2.5,No
2017/03/05,11:30,0.392,0.239,0.397,0.371,0.336,0.194,0.164,east-southeast,2.4,No
2017/03/05,11:40,0.390,0.240,0.400,0.368,0.332,0.194,0.164,southeast,3.0,No
2017/03/05,11:50,0.392,0.240,0.397,0.370,0.335,0.195,0.164,southeast,2.8,No
2017/03/05,12:00,0.389,0.239,0.398,0.370,0.334,0.194,0.164,east-southeast,3.9,No
2017/03/05,12:10,0.391,0.239,0.398,0.369,0.334,0.195,0.164,southeast,3.0,No
2017/03/05,12:20,0.389,0.240,0.401,0.371,0.334,0.196,0.163,southeast,2.6,No
2017/03/05,12:30,0.393,0.240,0.400,0.368,0.333,0.194,0.164,southeast,2.8,No
2017/03/05,12:40,0.391,0.240,0.401,0.371,0.335,0.194,0.164,southeast,2.0,No
2017/03/05,12:50,0.393,0.240,0.398,0.368,0.332,0.194,0.163,east-southeast,1.5,No
2017/03/05,13:00,0.390,0.240,0.399,0.371,0.337,0.196,0.164,south-southeast,3.0,No
2017/03/05,13:10,0.393,0.239,0.399,0.370,0.333,0.196,0.164,southeast,1.7,No
2017/03/05,13:20,0.390,0.239,0.400,0.372,0.338,0.194,0.165,southeast,2.3,No
2017/03/05,13:30,0.392,0.241,0.398,0.370,0.333,0.196,0.163,southeast,1.5,No
2017/03/05,13:40,0.390,0.240,0.398,0.371,0.336,0.195,0.164,south,1.6,No
2017/03/05,13:50,0.394,0.240,0.399,0.371,0.334,0.195,0.163,southeast,2.2,No
2017/03/05,14:00,0.390,0.239,0.400,0.370,0.336,0.195,0.164,south-southeast,2.2,No
2017/03/05,14:10,0.394,0.241,0.402,0.371,0.336,0.194,0.164,south-southeast,1.4,No
2017/03/05,14:20,0.389,0.241,0.400,0.370,0.334,0.194,0.164,southeast,1.9,No
2017/03/05,14:30,0.392,0.240,0.401,0.373,0.335,0.194,0.164,southeast,2.7,No
2017/03/05,14:40,0.392,0.241,0.397,0.369,0.335,0.196,0.163,south-southeast,1.4,No
2017/03/05,14:50,0.391,0.241,0.401,0.371,0.336,0.196,0.164,south-southeast,1.5,No
2017/03/05,15:00,0.392,0.240,0.400,0.371,0.334,0.194,0.164,south-southeast,2.4,No
2017/03/05,15:10,0.390,0.240,0.400,0.370,0.336,0.194,0.164,south-southeast,2.0,No
2017/03/05,15:20,0.393,0.241,0.402,0.373,0.334,0.195,0.165,south-southeast,3.1,No
2017/03/05,15:30,0.389,0.241,0.402,0.372,0.336,0.196,0.164,south-southeast,3.1,No
2017/03/05,15:40,0.393,0.239,0.402,0.372,0.337,0.195,0.163,south-southeast,3.6,No
2017/03/05,15:50,0.393,0.240,0.402,0.373,0.336,0.196,0.165,southeast,1.1,No
2017/03/05,16:00,0.391,0.241,0.401,0.371,0.337,0.195,0.165,southeast,1.7,No
2017/03/05,16:10,0.392,0.240,0.401,0.371,0.336,0.194,0.164,southeast,1.0,No
2017/03/05,16:20,0.392,0.240,0.402,0.372,0.336,0.194,0.164,south-southeast,0.8,No
2017/03/05,16:30,0.392,0.241,0.401,0.370,0.336,0.195,0.165,southeast,1.1,No
2017/03/05,16:40,0.394,0.242,0.400,0.369,0.337,0.195,0.164,east-southeast,0.7,No
2017/03/05,16:50,0.392,0.240,0.402,0.371,0.334,0.196,0.166,east-southeast,1.0,No
2017/03/05,17:00,0.394,0.242,0.400,0.373,0.335,0.196,0.164,south,2.5,No
2017/03/05,17:10,0.392,0.241,0.402,0.371,0.336,0.195,0.164,south-southeast,1.4,No
2017/03/05,17:20,0.391,0.240,0.401,0.371,0.335,0.195,0.164,south-southeast,0.8,No
2017/03/05,17:30,0.392,0.241,0.401,0.372,0.336,0.194,0.163,south-southeast,1.2,No
2017/03/05,17:40,0.394,0.242,0.400,0.369,0.336,0.195,0.165,south,2.1,No
2017/03/05,17:50,0.393,0.241,0.399,0.369,0.336,0.195,0.164,south,1.7,No
2017/03/05,18:00,0.391,0.240,0.401,0.372,0.334,0.195,0.164,south,3.4,No
2017/03/05,18:10,0.392,0.240,0.400,0.371,0.337,0.195,0.164,south,4.4,No
2017/03/05,18:20,0.392,0.241,0.400,0.372,0.336,0.196,0.165,south,3.2,No
2017/03/05,18:30,0.393,0.242,0.401,0.372,0.335,0.195,0.165,south,3.8,No
2017/03/05,18:40,0.392,0.241,0.402,0.372,0.335,0.195,0.164,south,5.6,No
2017/03/05,18:50,0.392,0.240,0.401,0.372,0.336,0.195,0.164,south-southwest,5.5,No
2017/03/05,19:00,0.391,0.241,0.401,0.371,0.334,0.195,0.164,south-southwest,5.1,No
2017/03/05,19:10,0.392,0.241,0.400,0.372,0.335,0.195,0.164,south-southwest,4.5,No
2017/03/05,19:20,0.393,0.241,0.400,0.371,0.337,0.195,0.164,south-southwest,4.8,No
2017/03/05,19:30,0.393,0.241,0.400,0.372,0.335,0.195,0.164,south-southwest,5.2,No
2017/03/05,19:40,0.391,0.242,0.400,0.372,0.334,0.196,0.164,south-southwest,5.3,No
2017/03/05,19:50,0.393,0.241,0.402,0.370,0.336,0.195,0.164,south-southwest,5.3,No
2017/03/05,20:00,0.392,0.242,0.402,0.372,0.335,0.195,0.164,south-southwest,4.9,No
2017/03/05,20:10,0.391,0.241,0.401,0.374,0.334,0.196,0.164,south,3.6,No
2017/03/05,20:20,0.392,0.240,0.403,0.371,0.336,0.195,0.164,south-southwest,1.4,No
2017/03/05,20:30,0.393,0.242,0.401,0.371,0.336,0.195,0.164,-,CALM,No
2017/03/05,20:40,0.392,0.241,0.398,0.371,0.334,0.195,0.164,-,CALM,No
2017/03/05,20:50,0.391,0.241,0.401,0.371,0.334,0.195,0.164,south,1.0,No
2017/03/05,21:00,0.392,0.242,0.401,0.370,0.337,0.196,0.163,south-southwest,3.2,No
2017/03/05,21:10,0.393,0.242,0.401,0.372,0.335,0.196,0.164,south-southwest,6.0,No
2017/03/05,21:20,0.392,0.242,0.402,0.373,0.336,0.195,0.164,south,6.7,No
2017/03/05,21:30,0.393,0.240,0.402,0.372,0.336,0.195,0.164,south-southwest,6.4,No
2017/03/05,21:40,0.392,0.240,0.401,0.372,0.336,0.197,0.164,south-southwest,6.2,No
2017/03/05,21:50,0.393,0.241,0.401,0.373,0.335,0.196,0.165,south,5.4,No
2017/03/05,22:00,0.393,0.240,0.401,0.371,0.335,0.195,0.164,south,5.8,No
2017/03/05,22:10,0.393,0.241,0.404,0.372,0.337,0.195,0.165,south-southwest,4.8,No
2017/03/05,22:20,0.392,0.242,0.402,0.372,0.336,0.196,0.164,south-southwest,4.1,No
2017/03/05,22:30,0.392,0.241,0.400,0.371,0.334,0.196,0.164,south-southwest,5.0,No
2017/03/05,22:40,0.393,0.241,0.401,0.371,0.338,0.196,0.165,south-southwest,2.4,No
2017/03/05,22:50,0.395,0.241,0.402,0.372,0.335,0.196,0.164,west-southwest,1.2,No
2017/03/05,23:00,0.392,0.241,0.402,0.374,0.336,0.195,0.165,northwest,0.5,No
2017/03/05,23:10,0.393,0.242,0.401,0.371,0.336,0.197,0.164,northwest,0.9,No
2017/03/05,23:20,0.394,0.243,0.401,0.373,0.337,0.196,0.166,north-northwest,2.5,No
2017/03/05,23:30,0.394,0.242,0.403,0.373,0.337,0.197,0.165,north-northwest,3.9,No
2017/03/05,23:40,0.393,0.242,0.403,0.373,0.335,0.196,0.166,north,2.7,No
2017/03/05,23:50,0.393,0.242,0.401,0.371,0.337,0.197,0.165,north,3.3,No
